sat.trackr.live / text

‹ back to catalog

KUIPER-00446

NORAD 68944 · 2026-098AB

PAYLOAD ACTIVE UNKNOWN

§ Identity

Operator
Country
US
Launch date
2026-04-30
Launch site
FRGUI
Launch vehicle
Mass (kg)
RCS (m²)

External: N2YO · Heavens-Above · Gunter

§ Orbital elements

Epoch: 2026-05-24T19:02:04.380000Z

Period
93.87 min
Inclination
51.8714°
Eccentricity
0.0006781
Mean motion
15.34092900 rev/d
Perigee alt
459.0 km
Apogee alt
468.3 km
Semi-major
6,841.8 km
B*
2.3197e-4
RAAN
180.4603°
Arg perigee
59.6185°
Mean anomaly
300.5470°
Rev number
375

§ Raw data

KUIPER-004461 68944U 26098AB  26144.79310625  .00007402  00000+0  23197-3 0  99932 68944  51.8714 180.4603 0006781  59.6185 300.5470 15.34092900  3754

JSON: /api/v1/satellites/68944 · /tle

For live sub-satellite position, see the globe view (requires WebGL).

§ Visibility from observer

Set your observer location to see the next 7 days of passes ≥ 10°. The values pass through the URL so the page stays shareable.

No JS? Fill the form by hand. The geolocation button needs JavaScript.